[Iaude] MPEC K151: 2020 KY3 [a=1.72,e=0.29,i=31.5,H=22.9]

mpec at marsden.cfa.harvard.edu mpec at marsden.cfa.harvard.edu
Sun May 24 07:50:02 EDT 2020


M.P.E.C. 2020-K151                                 Issued 2020 May 24, 11:48 UT

     The Minor Planet Electronic Circulars contain information on unusual
         minor planets and routine data on comets.  They are published
    on behalf of Division F of the International Astronomical Union by the
          Minor Planet Center, Smithsonian Astrophysical Observatory,
                          Cambridge, MA 02138, U.S.A.

             Prepared using the Tamkin Foundation Computer Network

                              MPC at CFA.HARVARD.EDU
            URL https://www.minorplanetcenter.net/    ISSN 1523-6714

                                    2020 KY3                                    


Observations:
     K20K03Y  C2020 05 18.49204516 33 22.923+03 15 18.15         21.5 GVEK151F51
     K20K03Y  C2020 05 18.50407316 33 20.867+03 14 23.60               VEK151F51
     K20K03Y  C2020 05 18.51598116 33 18.880+03 13 29.39         21.4 GVEK151F51
     K20K03Y* C2020 05 23.34969 16 19 02.64 -03 38 32.7          21.4 GVEK151G96
     K20K03Y  C2020 05 23.35487 16 19 01.59 -03 39 01.9          21.0 GVEK151G96
     K20K03Y  C2020 05 23.36520 16 18 59.45 -03 40 00.2          21.1 GVEK151G96
     K20K03Y  C2020 05 23.41277 16 18 49.60 -03 44 29.8          21.3 GVEK151V06
     K20K03Y  C2020 05 23.41478 16 18 49.19 -03 44 41.2          21.5 GVEK151V06
     K20K03Y  C2020 05 23.41679 16 18 48.77 -03 44 52.7          21.4 GVEK151V06
     K20K03Y  C2020 05 24.28969 16 15 55.82 -05 08 46.2          20.6 GVEK151I52
     K20K03Y  C2020 05 24.29352 16 15 54.93 -05 09 09.8          20.9 GVEK151I52
     K20K03Y  C2020 05 24.29735 16 15 54.16 -05 09 33.0          20.3 GVEK151I52
     K20K03Y  C2020 05 24.30117 16 15 53.31 -05 09 54.6          20.7 GVEK151I52
     K20K03Y !C2020 05 24.39650 16 15 33.06 -05 19 14.7          20.9 RtEK151673
     K20K03Y !C2020 05 24.41385 16 15 29.32 -05 20 57.3                tEK151673

Observer details:
673 Table Mountain Observatory, Wrightwood.  Observer J. Pittichova.  1.0-m
    f/15 reflector + CCD.
F51 Pan-STARRS 1, Haleakala.  Observers J. Bulger, K. Chambers, T. Lowe, A.
    Schultz, M. Willman.  Measurers S. Chastel, M. Huber, Y. Ramanjooloo, R.
    Wainscoat, R. Weryk.  1.8-m Ritchey-Chretien + CCD.
G96 Mt. Lemmon Survey.  Observer D. Rankin.  Measurers E. J. Christensen, G.
    A. Farneth, D. C. Fuls, A. R. Gibbs, A. D. Grauer, H. Groeller, R. A.
    Kowalski, S. M. Larson, G. J. Leonard, T. A. Pruyne, D. Rankin, R. L.
    Seaman, F. C. Shelly, K. W. Wierzchos.  1.5-m reflector + 10K CCD.
I52 Steward Observatory, Mt. Lemmon Station.  Observer D. C. Fuls.  Measurers
    E. J. Christensen, G. A. Farneth, D. C. Fuls, A. R. Gibbs, A. D. Grauer,
    H. Groeller, R. A. Kowalski, S. M. Larson, G. J. Leonard, T. A. Pruyne, D.
    Rankin, R. L. Seaman, F. C. Shelly, K. W. Wierzchos.  1.0-m reflector +
    CCD.
V06 Catalina Sky Survey-Kuiper.  Observer D. C. Fuls.  Measurers E. J.
    Christensen, G. A. Farneth, D. C. Fuls, A. R. Gibbs, A. D. Grauer, H.
    Groeller, R. A. Kowalski, S. M. Larson, G. J. Leonard, T. A. Pruyne, D.
    Rankin, R. L. Seaman, F. C. Shelly, K. W. Wierzchos.  1.55-m reflector +
    CCD.

Orbital elements:
2020 KY3                                                 Earth MOID = 0.2357 AU
Epoch 2020 May 31.0 TT = JDT 2459000.5                  Veres
M 345.15707              (2000.0)            P               Q
n   0.43776974     Peri.  206.37509     +0.02595685     +0.87338752
a   1.7177985      Node    68.60819     -0.79982427     +0.30998225
e   0.2865998      Incl.   31.48781     -0.59967273     -0.37563979
P   2.25           H   22.9           G   0.15           U   8
Residuals in seconds of arc
200518 F51  0.1-  0.2-    200523 G96  0.2+  0.2+    200524 I52  0.5-  0.1-
200518 F51  0.2-  0.1+    200523 V06  0.1-  0.1-    200524 I52  0.3+  0.8-
200518 F51  0.3+  0.2+    200523 V06  0.0   0.1-    200524 I52  0.2-  0.0
200523 G96  0.2-  0.0     200523 V06  0.1-  0.2-    200524 673  0.1+  0.3+
200523 G96  0.2+  0.1+    200524 I52  0.5+  1.1+    200524 673  0.2-  0.3-

Ephemeris:
2020 KY3                 a,e,i = 1.72, 0.29, 31                  q = 1.2255
Date    TT    R. A. (2000) Decl.     Delta      r    Elong.  Phase     V
2020 04 24    17 06 06.0 +19 50 53   0.4943  1.3521   125.1    37.5    23.5
...
2020 05 09    16 53 04.0 +12 38 49   0.3626  1.3075   139.8    29.9    22.6
...
2020 05 17    16 37 11.4 +05 04 35   0.3045  1.2868   151.3    22.2    21.9
...
2020 05 23    16 20 11.2 -03 05 24   0.2712  1.2730   161.8    14.4    21.4
2020 05 24    16 16 54.2 -04 40 14   0.2667  1.2709   163.6    13.0    21.3
2020 05 25    16 13 29.5 -06 18 36   0.2627  1.2687   165.3    11.7    21.2
...
2020 05 31    15 50 25.9 -17 08 24   0.2468  1.2570   169.0     8.8    21.0
...
2020 06 08    15 13 57.2 -32 14 35   0.2500  1.2441   153.7    21.2    21.4
...
2020 06 23    14 02 02.5 -52 30 18   0.3174  1.2288   125.7    42.2    22.5

M. P. C. Staff               (C) Copyright 2020 MPC           M.P.E.C. 2020-K151




More information about the Iaude mailing list